Year,Month,Day,Hour,Minute,Value (Times are PST for temperature in C)
2012,04,15,05,10,7.90
2012,04,15,05,11,7.90
2012,04,15,05,12,7.90
2012,04,15,05,13,7.90
2012,04,15,05,14,7.90
2012,04,15,05,15,7.90
2012,04,15,05,16,7.90
2012,04,15,05,17,7.90
2012,04,15,05,18,7.90
2012,04,15,05,19,7.80
2012,04,15,05,20,7.80
2012,04,15,05,21,7.80
2012,04,15,05,22,7.80
2012,04,15,05,23,7.80
2012,04,15,05,24,7.80
2012,04,15,05,25,7.80
2012,04,15,05,26,7.80
2012,04,15,05,27,7.80
2012,04,15,05,28,7.80
2012,04,15,05,29,7.80
2012,04,15,05,30,7.80
2012,04,15,05,31,7.80
2012,04,15,05,32,7.80
2012,04,15,05,33,7.80
2012,04,15,05,34,7.80
2012,04,15,05,35,7.80
2012,04,15,05,36,7.80
2012,04,15,05,37,7.80
2012,04,15,05,38,7.80
2012,04,15,05,39,7.80
2012,04,15,05,40,7.80
2012,04,15,05,41,7.80
2012,04,15,05,42,7.80
2012,04,15,05,43,7.80
2012,04,15,05,44,7.80
2012,04,15,05,45,7.80
2012,04,15,05,46,7.80
2012,04,15,05,47,7.80
2012,04,15,05,48,7.80
2012,04,15,05,49,7.80
2012,04,15,05,50,7.80
2012,04,15,05,51,7.80
2012,04,15,05,52,7.80
2012,04,15,05,53,7.80
2012,04,15,05,54,7.70
2012,04,15,05,55,7.70
2012,04,15,05,56,7.70
2012,04,15,05,57,7.70
2012,04,15,05,58,7.70
2012,04,15,05,59,7.70
2012,04,15,06,00,7.70
2012,04,15,06,01,7.70
2012,04,15,06,02,7.70
2012,04,15,06,03,7.60
2012,04,15,06,04,7.60
2012,04,15,06,05,7.60
2012,04,15,06,06,7.60
2012,04,15,06,07,7.60
2012,04,15,06,08,7.60
2012,04,15,06,09,7.60
2012,04,15,06,10,7.60
2012,04,15,06,11,7.60
2012,04,15,06,12,7.60
2012,04,15,06,13,7.60
2012,04,15,06,14,7.60
2012,04,15,06,15,7.60
2012,04,15,06,16,7.60
2012,04,15,06,17,7.60
2012,04,15,06,18,7.60
2012,04,15,06,19,7.60
2012,04,15,06,20,7.60
2012,04,15,06,21,7.60
2012,04,15,06,22,7.60
2012,04,15,06,23,7.60
2012,04,15,06,24,7.60
2012,04,15,06,25,7.50
2012,04,15,06,26,7.50
2012,04,15,06,27,7.50
2012,04,15,06,28,7.50
2012,04,15,06,29,7.50
2012,04,15,06,30,7.50
2012,04,15,06,31,7.50
2012,04,15,06,32,7.50
2012,04,15,06,33,7.40
2012,04,15,06,34,7.50
2012,04,15,06,35,7.40
2012,04,15,06,36,7.40
2012,04,15,06,37,7.50
2012,04,15,06,38,7.40
2012,04,15,06,39,7.40
2012,04,15,06,40,7.40
2012,04,15,06,41,7.40
2012,04,15,06,42,7.40
2012,04,15,06,43,7.40
2012,04,15,06,44,7.40
2012,04,15,06,45,7.40
2012,04,15,06,46,7.40
2012,04,15,06,47,7.40
2012,04,15,06,48,7.40
2012,04,15,06,49,7.40
2012,04,15,06,50,7.40
2012,04,15,06,51,7.40
2012,04,15,06,52,7.40
2012,04,15,06,53,7.30
2012,04,15,06,54,7.30
2012,04,15,06,55,7.30
2012,04,15,06,56,7.30
2012,04,15,06,57,7.30
2012,04,15,06,58,7.30
2012,04,15,06,59,7.30
2012,04,15,07,00,7.30
2012,04,15,07,01,7.30
2012,04,15,07,02,7.30
2012,04,15,07,03,7.30
2012,04,15,07,04,7.40
2012,04,15,07,05,7.40
2012,04,15,07,06,7.40
2012,04,15,07,07,7.40
2012,04,15,07,08,7.40
2012,04,15,07,09,7.40
2012,04,15,07,10,7.50
2012,04,15,07,11,7.50
2012,04,15,07,12,7.50
2012,04,15,07,13,7.50
2012,04,15,07,14,7.60
2012,04,15,07,15,7.60
2012,04,15,07,16,7.60
2012,04,15,07,17,7.60
2012,04,15,07,18,7.60
2012,04,15,07,19,7.60
2012,04,15,07,20,7.70
2012,04,15,07,21,7.70
2012,04,15,07,22,7.70
2012,04,15,07,23,7.80
2012,04,15,07,24,7.80
2012,04,15,07,25,7.80
2012,04,15,07,26,7.80
2012,04,15,07,27,7.80
2012,04,15,07,28,7.80
2012,04,15,07,29,7.80
2012,04,15,07,30,7.80
2012,04,15,07,31,7.80
2012,04,15,07,32,7.90
2012,04,15,07,33,7.90
2012,04,15,07,34,7.90
2012,04,15,07,35,8.00
2012,04,15,07,36,8.00
2012,04,15,07,37,8.10
2012,04,15,07,38,8.10
2012,04,15,07,39,8.10
2012,04,15,07,40,8.10
2012,04,15,07,41,8.20
2012,04,15,07,42,8.20
2012,04,15,07,43,8.20
2012,04,15,07,44,8.20
2012,04,15,07,45,8.20
2012,04,15,07,46,8.20
2012,04,15,07,47,8.20
2012,04,15,07,48,8.20
2012,04,15,07,49,8.20
2012,04,15,07,50,8.20
2012,04,15,07,51,8.20
2012,04,15,07,52,8.20
2012,04,15,07,53,8.30
2012,04,15,07,54,8.30
2012,04,15,07,55,8.30
2012,04,15,07,56,8.40
2012,04,15,07,57,8.40
2012,04,15,07,58,8.40
2012,04,15,07,59,8.40
2012,04,15,08,00,8.40
2012,04,15,08,01,8.40
2012,04,15,08,02,8.40
2012,04,15,08,03,8.40
2012,04,15,08,04,8.40
2012,04,15,08,05,8.40
2012,04,15,08,06,8.50
2012,04,15,08,07,8.50
2012,04,15,08,08,8.60
2012,04,15,08,09,8.60
2012,04,15,08,10,8.60
2012,04,15,08,11,8.70
2012,04,15,08,12,8.70
2012,04,15,08,13,8.70
2012,04,15,08,14,8.70
2012,04,15,08,15,8.70
2012,04,15,08,16,8.80
2012,04,15,08,17,8.80
2012,04,15,08,18,8.80
2012,04,15,08,19,8.80
2012,04,15,08,20,8.90
2012,04,15,08,21,8.90
2012,04,15,08,22,8.90
2012,04,15,08,23,9.00
2012,04,15,08,24,9.00
2012,04,15,08,25,9.00
2012,04,15,08,26,9.00
2012,04,15,08,27,9.10
2012,04,15,08,28,9.20
2012,04,15,08,29,9.10
2012,04,15,08,30,9.20
2012,04,15,08,31,9.20
2012,04,15,08,32,9.20
2012,04,15,08,33,9.20
2012,04,15,08,34,9.20
2012,04,15,08,35,9.20
2012,04,15,08,36,9.20
2012,04,15,08,37,9.20
2012,04,15,08,38,9.20
2012,04,15,08,39,9.20
2012,04,15,08,40,9.20
2012,04,15,08,41,9.20
2012,04,15,08,42,9.20
2012,04,15,08,43,9.20
2012,04,15,08,44,9.20
2012,04,15,08,45,9.20
2012,04,15,08,46,9.20
2012,04,15,08,47,9.20
2012,04,15,08,48,9.20
2012,04,15,08,49,9.20
2012,04,15,08,50,9.20
2012,04,15,08,51,9.20
2012,04,15,08,52,9.20
2012,04,15,08,53,9.20
2012,04,15,08,54,9.20
2012,04,15,08,55,9.20
2012,04,15,08,56,9.20
2012,04,15,08,57,9.20
2012,04,15,08,58,9.30
2012,04,15,08,59,9.20
2012,04,15,09,00,9.20
2012,04,15,09,01,9.30
2012,04,15,09,02,9.40
2012,04,15,09,03,9.40
2012,04,15,09,04,9.50
2012,04,15,09,05,9.50
2012,04,15,09,06,9.70
2012,04,15,09,07,9.70
2012,04,15,09,08,9.70
2012,04,15,09,09,9.70
2012,04,15,09,10,9.80
2012,04,15,09,11,9.90
2012,04,15,09,12,9.90
2012,04,15,09,13,10.00
2012,04,15,09,14,10.10
2012,04,15,09,15,10.00
2012,04,15,09,16,9.90
2012,04,15,09,17,9.90
2012,04,15,09,18,9.90
2012,04,15,09,19,9.90
2012,04,15,09,20,9.90
2012,04,15,09,21,9.80
2012,04,15,09,22,9.80
2012,04,15,09,23,9.80
2012,04,15,09,24,9.80
2012,04,15,09,25,9.80
2012,04,15,09,26,9.70
2012,04,15,09,27,9.70
2012,04,15,09,28,9.70
2012,04,15,09,29,9.70
2012,04,15,09,30,9.70
2012,04,15,09,31,9.70
2012,04,15,09,32,9.70
2012,04,15,09,33,9.80
2012,04,15,09,34,9.80
2012,04,15,09,35,9.80
2012,04,15,09,36,9.80
2012,04,15,09,37,9.90
2012,04,15,09,38,9.90
2012,04,15,09,39,10.10
2012,04,15,09,40,10.10
2012,04,15,09,41,10.10
2012,04,15,09,42,10.10
2012,04,15,09,43,10.20
2012,04,15,09,44,10.20
2012,04,15,09,45,10.30
2012,04,15,09,46,10.40
2012,04,15,09,47,10.40
2012,04,15,09,48,10.40
2012,04,15,09,49,10.40
2012,04,15,09,50,10.40
2012,04,15,09,51,10.40
2012,04,15,09,52,10.40
2012,04,15,09,53,10.40
2012,04,15,09,54,10.60
2012,04,15,09,55,10.60
2012,04,15,09,56,10.60
2012,04,15,09,57,10.60
2012,04,15,09,58,10.70
2012,04,15,09,59,10.70
2012,04,15,10,00,10.70
2012,04,15,10,01,10.60
2012,04,15,10,02,10.60
2012,04,15,10,03,10.60
2012,04,15,10,04,10.70
2012,04,15,10,05,10.90
2012,04,15,10,06,10.90
2012,04,15,10,07,10.90
2012,04,15,10,08,10.90
2012,04,15,10,09,10.90
2012,04,15,10,10,11.00
2012,04,15,10,11,11.10
2012,04,15,10,12,11.10
2012,04,15,10,13,11.10
2012,04,15,10,14,11.10
2012,04,15,10,15,11.10
2012,04,15,10,16,11.10
2012,04,15,10,17,11.10
2012,04,15,10,18,11.10
2012,04,15,10,19,11.10
2012,04,15,10,20,11.10
2012,04,15,10,21,11.10
2012,04,15,10,22,11.10
2012,04,15,10,23,11.10
2012,04,15,10,24,11.10
2012,04,15,10,25,11.10
2012,04,15,10,26,11.10
2012,04,15,10,27,11.10
2012,04,15,10,28,11.10
